Flag for South Africa Weather past 2 weeks in Port Elizabeth, South Africa

Now
73 °F

Sunny.


Feels Like: 76 °F
Forecast: 65 / 87 °F
Wind: 24 mph from East

Location: Port Elizabeth Airport

Current Time: Jan 29, 2015 at 6:48:02 PM

Latest Report: Jan 29, 2015 at 6:00 PM


Visibility: 10 mi

Pressure: 29.92 "Hg

Humidity: 65%

Dew point: 61 °F

Location of Port ElizabethLocation

Historic Weather in Port Elizabeth — Graph

°F

Port Elizabeth temperature yesterday

Maximum temperature yesterday: 72 °F (at 2:00 PM)
Minimum temperature yesterday: 66 °F (at 12:00 AM)
Average temperature yesterday: 68 °F

Past Weeks' High & Low Weather Summary

 TemperatureHumidityPressure
High84 °F (Jan 15, 12:00 PM)94% (Jan 18, 11:00 PM)30.18 "Hg (Jan 18, 11:00 PM)
Low52 °F (Jan 20, 6:00 AM)50% (Jan 19, 1:00 PM)29.59 "Hg (Jan 15, 5:00 PM)
Average70 °F76%29.96 "Hg
* Reported Jan 14 5:00 PM — Jan 29 5:00 PM, Port Elizabeth, Weather by CustomWeather, © 2014

Note: Actual official high and low records may vary slightly from our data, if they occured in-between our weather recording intervals... More about our weather records

Advertising

Port Elizabeth weather history for previous 24 hours

 ConditionsComfort  
Time TempWeatherWind HumidityBarometerVisibility
5:00 PM
Jan 29
73 °FSunny.25 mph65%29.92 "Hg10 mi
4:00 PM75 °FPassing clouds.25 mph65%29.92 "HgN/A
3:00 PM77 °FPassing clouds.30 mph65%29.95 "HgN/A
2:00 PM77 °FPassing clouds.28 mph65%29.95 "HgN/A
1:00 PM77 °FPassing clouds.28 mph61%29.95 "HgN/A
12:00 PM75 °FPassing clouds.24 mph69%29.98 "HgN/A
11:00 AM75 °FSunny.17 mph65%30.01 "Hg10 mi
10:00 AM73 °FSunny.13 mph65%30.01 "Hg10 mi
9:00 AM72 °FSunny.12 mph69%30.01 "Hg10 mi
8:00 AM70 °FSunny.15 mph78%30.01 "Hg10 mi
7:00 AM68 °FSunny.12 mph83%30.01 "Hg10 mi
6:00 AM66 °FPassing clouds.7 mph83%30.01 "HgN/A
5:00 AM64 °FSunny.7 mph88%30.01 "Hg10 mi
4:00 AM66 °FClear.5 mph83%30.01 "Hg10 mi
3:00 AM66 °FClear.6 mph83%30.01 "Hg10 mi
2:00 AM64 °FClear.5 mph88%30.04 "Hg10 mi
1:00 AM64 °FClear.3 mph88%30.04 "Hg10 mi
12:00 AM66 °FClear.3 mph83%30.07 "Hg10 mi
11:00 PM
Jan 28
66 °FClear.5 mph83%30.07 "Hg10 mi
10:00 PM68 °FPassing clouds.6 mph73%30.07 "HgN/A
9:00 PM68 °FOvercast.7 mph73%30.07 "HgN/A
8:00 PM68 °FOvercast.6 mph73%30.07 "HgN/A
7:00 PM70 °FOvercast.8 mph69%30.07 "HgN/A
6:00 PM70 °FPartly sunny.12 mph69%30.04 "HgN/A
Weather by CustomWeather, © 2014

See weather overviewHow to use our weather pages